Location: Bucharest
(44.4268°N, 26.1025°E)
Time: 00:52:47
(UTC+03:00)

O/OREOS (USA 219) - Pass Details

Date: 05 July 2022
Orbit: 621 x 646 km, 72.0° (Epoch: 22 May)

Event Time Altitude Azimuth Distance (km) Brightness Sun altitude
Rises 00:16:45 0° 342° (NNW) 2,965 ? -21.2°
Reaches altitude 10° 00:19:11 10° 350° (N) 2,053 ? -21.3°
Maximum altitude 00:23:30 38° 59° (ENE) 982 ? -21.5°
Enters shadow 00:24:56 30° 99° (E) 1,149 ? -21.6°
